When you browse on this site, cookies collect data to enhance your experience and personalize the content and advertising you see.
Visit our Privacy Policy to learn more. By continuing to use the site, you agree to this use of cookies and data.
  • En España
  • Lista de países
  • Para 7 días
  • Temperatura del agua
  • Mapa Satelital
  • El tiempo en el mapa
  • Informadores
  • user-avatar
    Iniciar sesión

    Tiempo cada hora Calmeca

    Hoy, 18 Febrero, Lunes

    Tiempo Temperatura Precipitaciones Viento Presión Humedad
    00:00 +22°C° 0 mm 1 mps 649 mmHg 30%
    01:00 +21°C° 0 mm 1 mps 649 mmHg 31%
    02:00 +20°C° 0 mm 1 mps 649 mmHg 33%
    03:00 +20°C° 0 mm 1 mps 648 mmHg 33%
    04:00 +20°C° 0 mm 1 mps 648 mmHg 34%
    05:00 +19°C° 0 mm 1 mps 648 mmHg 35%
    06:00 +21°C° 0 mm 1 mps 649 mmHg 32%
    07:00 +21°C° 0 mm 0 mps 650 mmHg 29%
    08:00 +23°C° 0 mm 0 mps 651 mmHg 27%
    09:00 +26°C° 0 mm 0 mps 651 mmHg 23%
    10:00 +30°C° 0 mm 1 mps 651 mmHg 20%
    11:00 +33°C° 0 mm 1 mps 652 mmHg 17%
    12:00 +34°C° 0 mm 2 mps 651 mmHg 16%
    13:00 +34°C° 0 mm 2 mps 651 mmHg 15%
    14:00 +35°C° 0 mm 2 mps 650 mmHg 15%
    15:00 +34°C° 0 mm 2 mps 650 mmHg 15%
    16:00 +32°C° 0 mm 2 mps 649 mmHg 16%
    17:00 +30°C° 0 mm 2 mps 649 mmHg 17%
    18:00 +28°C° 0 mm 2 mps 649 mmHg 16%
    19:00 +26°C° 0 mm 2 mps 649 mmHg 16%
    20:00 +24°C° 0 mm 2 mps 650 mmHg 15%
    21:00 +23°C° 0 mm 2 mps 650 mmHg 16%
    22:00 +23°C° 0 mm 1 mps 650 mmHg 16%
    23:00 +22°C° 0 mm 1 mps 650 mmHg 16%

    Mañana, 19 Febrero, Martes

    Tiempo Temperatura Precipitaciones Viento Presión Humedad
    00:00 +22°C° 0 mm 1 mps 649 mmHg 18%
    01:00 +21°C° 0 mm 1 mps 649 mmHg 19%
    02:00 +21°C° 0 mm 1 mps 649 mmHg 21%
    03:00 +20°C° 0 mm 1 mps 649 mmHg 23%
    04:00 +19°C° 0 mm 1 mps 648 mmHg 25%
    05:00 +19°C° 0 mm 1 mps 648 mmHg 26%
    06:00 +21°C° 0 mm 1 mps 649 mmHg 25%
    07:00 +23°C° 0 mm 1 mps 650 mmHg 24%
    08:00 +24°C° 0 mm 1 mps 651 mmHg 23%
    09:00 +26°C° 0 mm 1 mps 651 mmHg 22%
    10:00 +28°C° 0 mm 1 mps 651 mmHg 20%
    11:00 +30°C° 0 mm 2 mps 651 mmHg 18%
    12:00 +30°C° 0 mm 2 mps 651 mmHg 17%
    13:00 +31°C° 0 mm 3 mps 650 mmHg 16%
    14:00 +31°C° 0 mm 3 mps 649 mmHg 15%
    15:00 +30°C° 0 mm 3 mps 649 mmHg 16%
    16:00 +29°C° 0 mm 3 mps 649 mmHg 18%
    17:00 +28°C° 0 mm 3 mps 648 mmHg 19%
    18:00 +26°C° 0 mm 2 mps 648 mmHg 22%
    19:00 +24°C° 0 mm 2 mps 648 mmHg 26%
    20:00 +21°C° 0 mm 2 mps 648 mmHg 29%
    21:00 +21°C° 0 mm 2 mps 648 mmHg 31%
    22:00 +21°C° 0 mm 1 mps 648 mmHg 33%
    23:00 +20°C° 0 mm 1 mps 648 mmHg 34%

    Pasado mañana, 20 Febrero, Miércoles

    Tiempo Temperatura Precipitaciones Viento Presión Humedad
    00:00 +20°C° 0 mm 1 mps 648 mmHg 35%
    01:00 +19°C° 0 mm 1 mps 647 mmHg 36%
    02:00 +19°C° 0 mm 1 mps 647 mmHg 37%
    03:00 +18°C° 0 mm 1 mps 647 mmHg 37%
    04:00 +18°C° 0 mm 1 mps 647 mmHg 37%
    05:00 +16°C° 0 mm 1 mps 647 mmHg 38%
    06:00 +18°C° 0 mm 0 mps 648 mmHg 34%
    07:00 +20°C° 0 mm 0 mps 648 mmHg 30%
    08:00 +22°C° 0 mm 0 mps 649 mmHg 26%
    09:00 +26°C° 0 mm 1 mps 650 mmHg 23%
    10:00 +28°C° 0 mm 1 mps 650 mmHg 21%
    11:00 +30°C° 0 mm 2 mps 650 mmHg 18%
    12:00 +30°C° 0 mm 2 mps 649 mmHg 17%
    13:00 +31°C° 0 mm 2 mps 648 mmHg 15%
    14:00 +31°C° 0 mm 3 mps 648 mmHg 14%
    15:00 +30°C° 0 mm 3 mps 647 mmHg 15%
    16:00 +29°C° 0 mm 2 mps 647 mmHg 15%
    17:00 +28°C° 0 mm 2 mps 647 mmHg 16%
    18:00 +26°C° 0 mm 2 mps 647 mmHg 18%
    19:00 +24°C° 0 mm 2 mps 647 mmHg 19%
    20:00 +21°C° 0 mm 2 mps 648 mmHg 21%
    21:00 +21°C° 0 mm 1 mps 648 mmHg 22%
    22:00 +21°C° 0 mm 1 mps 648 mmHg 23%
    23:00 +20°C° 0 mm 1 mps 648 mmHg 24%

    21 Febrero, Jueves

    Tiempo Temperatura Precipitaciones Viento Presión Humedad
    00:00 +19°C° 0 mm 1 mps 647 mmHg 26%
    01:00 +19°C° 0 mm 1 mps 647 mmHg 27%
    02:00 +18°C° 0 mm 1 mps 646 mmHg 29%
    03:00 +18°C° 0 mm 1 mps 647 mmHg 30%
    04:00 +16°C° 0 mm 1 mps 647 mmHg 31%
    05:00 +16°C° 0 mm 1 mps 647 mmHg 33%
    06:00 +19°C° 0 mm 1 mps 648 mmHg 30%
    07:00 +19°C° 0 mm 0 mps 649 mmHg 27%
    08:00 +21°C° 0 mm 0 mps 650 mmHg 24%
    09:00 +26°C° 0 mm 1 mps 650 mmHg 21%
    10:00 +28°C° 0 mm 1 mps 650 mmHg 19%
    11:00 +30°C° 0 mm 2 mps 650 mmHg 16%
    12:00 +30°C° 0 mm 2 mps 650 mmHg 15%
    13:00 +31°C° 0 mm 2 mps 649 mmHg 14%
    14:00 +31°C° 0 mm 3 mps 648 mmHg 13%
    15:00 +30°C° 0 mm 3 mps 648 mmHg 14%
    16:00 +29°C° 0 mm 2 mps 648 mmHg 15%
    17:00 +28°C° 0 mm 2 mps 648 mmHg 16%
    18:00 +26°C° 0 mm 2 mps 648 mmHg 18%
    19:00 +24°C° 0 mm 2 mps 648 mmHg 21%
    20:00 +21°C° 0 mm 2 mps 648 mmHg 23%
    21:00 +20°C° 0 mm 2 mps 648 mmHg 23%
    22:00 +21°C° 0 mm 1 mps 648 mmHg 23%
    23:00 +20°C° 0 mm 1 mps 648 mmHg 23%

    22 Febrero, Viernes

    Tiempo Temperatura Precipitaciones Viento Presión Humedad
    00:00 +20°C° 0 mm 1 mps 648 mmHg 23%
    01:00 +19°C° 0 mm 1 mps 647 mmHg 24%
    02:00 +19°C° 0 mm 1 mps 647 mmHg 24%
    03:00 +18°C° 0 mm 1 mps 647 mmHg 25%
    04:00 +18°C° 0 mm 1 mps 647 mmHg 26%
    05:00 +18°C° 0 mm 1 mps 647 mmHg 26%
    06:00 +20°C° 0 mm 1 mps 649 mmHg 24%
    07:00 +20°C° 0 mm 0 mps 650 mmHg 22%
    08:00 +22°C° 0 mm 0 mps 651 mmHg 19%
    09:00 +26°C° 0 mm 1 mps 651 mmHg 18%
    10:00 +28°C° 0 mm 1 mps 651 mmHg 17%
    11:00 +30°C° 0 mm 2 mps 652 mmHg 15%
    12:00 +31°C° 0 mm 2 mps 651 mmHg 15%
    13:00 +32°C° 0 mm 2 mps 650 mmHg 15%
    14:00 +32°C° 0 mm 2 mps 650 mmHg 14%
    15:00 +31°C° 0 mm 2 mps 650 mmHg 15%
    16:00 +30°C° 0 mm 2 mps 649 mmHg 17%
    17:00 +30°C° 0 mm 2 mps 649 mmHg 18%
    18:00 +27°C° 0 mm 2 mps 649 mmHg 20%
    19:00 +25°C° 0 mm 2 mps 650 mmHg 23%
    20:00 +23°C° 0 mm 2 mps 650 mmHg 25%
    21:00 +23°C° 0 mm 1 mps 650 mmHg 26%
    22:00 +22°C° 0 mm 1 mps 649 mmHg 28%
    23:00 +21°C° 0 mm 1 mps 649 mmHg 29%

    23 Febrero, Sábado

    Tiempo Temperatura Precipitaciones Viento Presión Humedad
    00:00 +21°C° 0 mm 1 mps 649 mmHg 31%
    01:00 +20°C° 0 mm 1 mps 649 mmHg 33%
    02:00 +20°C° 0 mm 1 mps 648 mmHg 35%
    03:00 +19°C° 0 mm 1 mps 648 mmHg 36%
    04:00 +19°C° 0 mm 1 mps 649 mmHg 37%
    05:00 +19°C° 0 mm 1 mps 649 mmHg 39%
    06:00 +19°C° 0 mm 0 mps 650 mmHg 35%
    07:00 +21°C° 0 mm 0 mps 651 mmHg 32%
    08:00 +23°C° 0 mm 0 mps 652 mmHg 29%
    09:00 +25°C° 0 mm 0 mps 652 mmHg 26%
    10:00 +29°C° 0 mm 1 mps 652 mmHg 23%
    11:00 +31°C° 0 mm 2 mps 652 mmHg 20%
    12:00 +32°C° 0 mm 2 mps 651 mmHg 19%
    13:00 +32°C° 0 mm 2 mps 651 mmHg 18%
    14:00 +34°C° 0 mm 3 mps 650 mmHg 17%
    15:00 +32°C° 0 mm 2 mps 650 mmHg 18%
    16:00 +31°C° 0 mm 2 mps 650 mmHg 19%
    17:00 +30°C° 0 mm 2 mps 649 mmHg 21%
    18:00 +28°C° 0 mm 2 mps 650 mmHg 24%
    19:00 +26°C° 0 mm 2 mps 650 mmHg 28%
    20:00 +24°C° 0 mm 2 mps 650 mmHg 31%
    21:00 +24°C° 0 mm 1 mps 650 mmHg 33%
    22:00 +23°C° 0 mm 1 mps 650 mmHg 34%
    23:00 +22°C° 0 mm 1 mps 650 mmHg 36%
    Mostrar más